Temp
5 5 5 5 3 3 4 6 7 8 9 9 10 11 11 11 11 11 11 10 11 11 11 11 11 12 13 12 12 11 10 10 10 9 9 8 8 8 8 8 9 9 8 8 7 7 7 7 7
4 4 4 3 2 3 5 7 6 7 9 9 10 10 10 10 10 10 10 10 9 11 11 11 11 11 12 12 12 11 10 10 10 8 9 8 8 8 8 8 9 8 8 8 8 7 7 7 7
4 3 3 2 2 2 5 6 8 8 8 8 9 9 9 9 9 9 10 9 10 10 11 11 11 11 11 11 11 11 10 10 9 8 9 8 8 8 8 8 9 8 8 8 7 7 7 7 7
3 3 2 1 2 4 4 6 7 8 8 8 8 7 8 8 9 8 9 9 10 10 11 10 11 11 10 11 11 11 10 10 9 9 8 8 8 8 7 8 8 8 8 7 7 7 7 7 6
2 1 0 0 2 3 4 5 6 5 6 7 7 7 7 8 8 8 7 8 9 10 11 9 9 10 10 10 10 10 10 10 10 9 9 8 8 8 7 8 8 8 7 7 7 7 7 7 6
1 1 -1 -0 1 2 2 4 5 4 5 6 6 6 6 8 7 7 8 7 8 9 10 9 9 9 9 9 9 10 10 10 10 9 8 8 8 7 7 8 8 7 7 7 7 7 6 6 6
0 -1 -1 -1 0 2 3 3 3 3 4 5 5 5 6 7 6 6 7 7 7 8 9 9 9 8 9 9 9 9 9 10 9 8 7 7 7 6 8 7 8 7 7 7 6 6 6 6 6
-1 -3 -2 -2 -1 0 1 2 2 3 3 3 4 5 5 6 6 6 5 6 6 7 8 9 8 8 8 9 9 9 9 9 9 7 7 7 6 6 7 7 7 7 7 6 6 6 6 6 6
-3 -4 -3 -3 -2 -1 -0 -0 0 1 2 2 4 4 5 5 6 5 5 5 6 6 7 8 8 7 7 8 9 9 9 8 8 7 7 7 6 7 7 7 7 7 6 6 6 6 5 5 6
-4 -4 -3 -2 -2 -1 -1 -1 -1 -0 1 1 1 4 4 4 4 5 4 5 5 5 7 8 7 7 7 7 8 8 8 8 7 6 6 7 6 7 7 6 6 6 6 6 6 5 5 6 6
-4 -4 -4 -3 -3 -2 -2 -2 -2 -2 -1 0 1 2 3 2 3 3 3 4 5 4 6 8 7 7 6 6 8 8 7 7 6 6 6 7 7 7 7 6 6 6 5 5 5 5 5 5 6
-5 -4 -4 -4 -4 -4 -3 -4 -3 -3 -2 -1 -0 0 2 1 2 2 3 4 4 5 5 6 6 7 5 6 6 7 7 7 6 6 6 7 7 7 7 6 6 6 5 5 5 5 5 5 5
-5 -5 -4 -4 -4 -4 -4 -4 -4 -3 -2 -2 -2 -1 1 1 1 1 1 3 4 4 5 5 5 6 5 5 6 7 6 6 6 5 6 7 7 7 7 6 6 6 5 5 5 5 5 5 5
-5 -5 -5 -5 -5 -5 -5 -5 -5 -5 -4 -2 -2 -1 -0 -0 1 0 1 0 2 3 4 5 5 6 4 5 5 6 6 6 6 5 6 6 7 7 6 6 6 5 5 5 5 5 5 5 5
-6 -6 -6 -6 -6 -5 -5 -5 -5 -4 -2 -3 -3 -2 -1 -1 -0 -0 0 -0 1 3 3 4 4 5 5 5 5 6 6 5 6 5 6 6 7 7 6 6 5 5 5 5 5 5 5 5 5
-7 -7 -7 -5 -5 -5 -4 -5 -4 -3 -3 -4 -3 -1 -1 -1 -0 -0 -0 1 0 2 3 4 4 5 6 5 5 6 6 5 5 6 7 7 7 6 6 5 5 5 5 5 5 5 5 5 6
-7 -7 -6 -6 -5 -5 -4 -4 -4 -4 -4 -4 -4 -2 -3 -2 -1 -1 -1 -0 -1 2 2 3 4 4 4 4 4 5 5 5 6 7 6 6 6 6 6 5 5 6 5 5 5 5 5 6 6
-7 -6 -6 -6 -6 -6 -5 -5 -4 -4 -4 -4 -4 -4 -3 -3 -2 -2 -1 -1 -0 1 3 3 3 5 4 3 4 5 6 5 7 7 6 6 6 6 6 6 6 5 5 5 5 5 5 5 5
-7 -7 -7 -6 -6 -6 -6 -5 -5 -4 -4 -3 -4 -4 -3 -3 -2 -2 -2 -1 0 2 2 2 2 4 3 4 4 5 6 6 7 6 6 6 6 6 6 5 5 5 5 5 5 5 5 5 5
-6 -6 -6 -6 -6 -6 -6 -6 -5 -5 -4 -3 -3 -4 -3 -2 -2 -2 -2 -1 2 2 2 1 2 3 4 4 4 5 6 6 7 6 6 6 6 6 6 5 5 5 5 5 5 5 5 5 5
-7 -7 -7 -7 -6 -6 -5 -5 -3 -2 -4 -4 -3 -3 -3 -3 -2 -2 -1 0 3 3 2 2 3 4 3 3 4 5 5 5 6 6 6 6 6 6 5 5 5 5 5 5 5 5 5 5 5
-7 -5 -7 -6 -6 -6 -5 -5 -2 -2 -3 -3 -3 -3 -2 -3 -3 -2 -1 1 4 3 2 3 2 3 4 3 3 4 6 6 6 6 6 5 5 5 5 5 5 5 5 5 5 5 5 5 5
-5 -6 -6 -6 -6 -6 -5 -4 -3 -2 -3 -3 -3 -3 -3 -2 -2 -2 -2 0 2 2 2 4 4 4 4 4 3 3 5 5 5 5 5 5 5 5 5 5 5 5 5 5 5 5 5 5 5
-5 -5 -5 -5 -5 -5 -3 -4 -3 -3 -3 -3 -3 -3 -2 -2 -1 -2 -1 -1 2 2 3 3 4 1 2 4 3 3 4 4 4 4 5 5 5 5 5 5 5 5 5 5 5 4 4 4 4
-5 -5 -4 -4 -5 -4 -3 -4 -4 -4 -3 -3 -3 -2 -2 -2 -1 -1 0 1 2 3 3 3 3 3 3 2 4 2 3 3 4 4 5 5 5 5 5 5 5 5 5 4 4 4 4 4 4
-4 -5 -4 -3 -2 -3 -3 -3 -3 -3 -3 -3 -2 -2 -2 -2 0 0 1 2 3 3 3 3 3 3 3 2 4 2 3 4 3 4 4 4 5 5 5 5 5 4 4 4 3 3 3 4 4
-4 -4 -4 -4 -2 -1 -4 -4 -3 -3 -3 -2 -2 -2 -2 -2 1 2 2 2 3 2 3 4 4 2 2 2 2 2 3 3 3 3 3 4 4 4 4 4 4 4 3 3 3 2 2 3 3
-4 -4 -4 -3 -2 -2 -3 -4 -4 -4 -3 -2 -2 -3 -2 -1 0 2 2 2 3 3 3 3 2 1 1 2 2 2 2 3 2 3 3 3 4 3 3 3 4 3 3 2 2 2 2 2 3
-4 -3 -4 -3 -3 -2 -3 -3 -4 -4 -3 -3 -3 -2 -1 -0 0 0 2 2 2 3 3 3 3 3 2 1 2 1 1 1 1 1 2 2 2 2 2 2 3 3 3 2 2 2 1 2 2
-3 -3 -3 -3 -3 -3 -3 -4 -4 -3 -3 -3 -2 -2 -1 1 1 2 2 2 2 3 3 4 3 4 3 2 1 1 1 1 1 1 1 1 1 2 1 1 1 2 2 1 1 1 1 2 2
Height
3110 3111 3112 3114 3120 3115 3112 3107 3116 3117 3123 3127 3130 3132 3134 3136 3138 3140 3136 3137 3136 3141 3146 3148 3149 3151 3152 3153 3154 3155 3158 3161 3162 3164 3167 3168 3170 3171 3173 3174 3174 3175 3176 3176 3177 3178 3179 3180 3180
3105 3107 3109 3110 3111 3110 3102 3110 3112 3116 3118 3121 3124 3127 3129 3131 3134 3134 3134 3134 3132 3143 3145 3146 3147 3149 3151 3152 3153 3154 3157 3160 3161 3163 3167 3168 3170 3172 3173 3174 3174 3175 3176 3178 3178 3179 3180 3181 3182
3102 3103 3105 3104 3103 3102 3102 3107 3112 3114 3116 3118 3120 3121 3125 3129 3132 3129 3131 3134 3134 3139 3141 3143 3145 3146 3149 3151 3151 3153 3155 3158 3161 3162 3166 3168 3170 3171 3173 3174 3175 3176 3177 3179 3180 3181 3181 3182 3183
3097 3099 3100 3096 3094 3096 3101 3104 3104 3106 3109 3114 3117 3118 3121 3125 3129 3125 3125 3128 3128 3133 3138 3140 3141 3144 3146 3149 3150 3152 3154 3157 3160 3161 3164 3167 3169 3171 3173 3174 3176 3177 3178 3179 3181 3182 3183 3183 3184
3091 3093 3092 3089 3088 3093 3097 3101 3102 3101 3104 3108 3113 3113 3118 3123 3125 3121 3122 3125 3125 3131 3135 3137 3139 3141 3143 3147 3149 3150 3152 3155 3158 3160 3162 3166 3168 3170 3172 3174 3176 3177 3179 3180 3182 3183 3185 3185 3186
3086 3087 3085 3083 3086 3090 3093 3096 3097 3096 3098 3101 3108 3110 3113 3118 3119 3118 3122 3124 3122 3128 3133 3134 3135 3139 3141 3143 3147 3148 3151 3154 3156 3159 3161 3164 3166 3169 3171 3173 3175 3177 3179 3181 3183 3184 3186 3187 3187
3079 3080 3077 3080 3083 3085 3089 3094 3094 3096 3095 3095 3101 3106 3111 3114 3115 3113 3117 3119 3117 3123 3125 3130 3134 3135 3138 3141 3143 3146 3149 3152 3155 3157 3160 3162 3165 3167 3170 3172 3175 3177 3179 3181 3183 3185 3187 3188 3189
3074 3076 3072 3074 3077 3077 3084 3084 3086 3088 3088 3092 3093 3093 3104 3111 3108 3106 3108 3111 3111 3118 3121 3125 3130 3131 3134 3137 3140 3143 3146 3149 3151 3154 3157 3160 3163 3166 3168 3171 3174 3177 3178 3181 3183 3186 3187 3189 3190
3069 3068 3062 3069 3074 3073 3077 3076 3079 3080 3081 3084 3085 3085 3095 3105 3100 3098 3102 3103 3107 3111 3116 3120 3125 3128 3130 3134 3136 3139 3143 3145 3148 3150 3154 3158 3162 3164 3167 3170 3174 3176 3178 3180 3183 3186 3188 3189 3191
3062 3060 3059 3065 3070 3070 3070 3070 3071 3072 3072 3075 3078 3081 3085 3086 3089 3088 3092 3097 3100 3104 3109 3113 3121 3125 3127 3129 3133 3135 3138 3141 3145 3148 3151 3155 3160 3163 3166 3169 3172 3175 3177 3180 3183 3185 3188 3190 3191
3058 3054 3057 3058 3062 3063 3062 3062 3064 3063 3061 3066 3070 3072 3075 3076 3079 3082 3081 3088 3094 3100 3106 3109 3116 3114 3120 3124 3128 3131 3133 3137 3142 3145 3149 3153 3157 3160 3164 3167 3170 3174 3177 3179 3182 3185 3187 3190 3191
3052 3053 3053 3054 3056 3056 3053 3053 3052 3053 3053 3058 3059 3061 3064 3065 3068 3072 3076 3082 3085 3086 3091 3101 3106 3110 3114 3121 3124 3127 3129 3133 3138 3142 3145 3150 3153 3158 3162 3166 3170 3174 3177 3180 3182 3185 3188 3190 3192
3050 3050 3050 3050 3049 3048 3048 3044 3044 3042 3046 3048 3049 3052 3053 3056 3060 3062 3064 3070 3072 3076 3082 3087 3093 3091 3092 3113 3120 3126 3126 3131 3136 3141 3142 3147 3151 3156 3162 3166 3169 3173 3176 3180 3182 3185 3187 3190 3192
3045 3043 3041 3041 3040 3040 3039 3037 3038 3035 3037 3038 3039 3040 3043 3047 3051 3053 3053 3058 3063 3066 3070 3080 3083 3083 3091 3104 3115 3121 3122 3128 3133 3138 3139 3145 3149 3154 3160 3164 3168 3172 3175 3179 3181 3184 3187 3189 3191
3040 3037 3034 3033 3033 3032 3034 3028 3024 3026 3029 3027 3028 3028 3032 3036 3041 3043 3049 3051 3051 3059 3058 3068 3075 3082 3091 3079 3107 3113 3118 3126 3129 3134 3136 3142 3146 3152 3158 3163 3167 3170 3174 3178 3181 3183 3186 3189 3191
3034 3032 3027 3026 3028 3028 3029 3017 3018 3019 3018 3018 3018 3019 3021 3026 3031 3035 3040 3042 3046 3051 3058 3058 3068 3073 3084 3062 3095 3107 3116 3122 3124 3127 3135 3140 3145 3150 3155 3161 3164 3168 3172 3177 3180 3183 3186 3188 3191
3031 3024 3022 3020 3023 3022 3020 3012 3013 3012 3011 3010 3009 3010 3013 3016 3022 3028 3031 3035 3038 3044 3053 3055 3060 3067 3077 3080 3093 3103 3112 3115 3118 3125 3132 3137 3142 3148 3153 3158 3162 3167 3171 3175 3179 3182 3185 3187 3190
3025 3022 3019 3014 3015 3015 3009 3003 3002 3004 3003 3001 3000 3004 3005 3009 3014 3020 3023 3028 3033 3039 3045 3047 3051 3056 3066 3078 3089 3099 3105 3108 3113 3121 3128 3133 3138 3145 3151 3156 3160 3166 3170 3174 3178 3181 3184 3186 3187
3021 3019 3013 3007 3010 3009 3003 2995 2994 2995 2995 2993 2992 2995 2999 3001 3008 3012 3014 3017 3023 3034 3041 3044 3050 3051 3060 3070 3084 3091 3097 3104 3111 3118 3125 3130 3136 3143 3149 3154 3160 3165 3169 3174 3176 3179 3182 3184 3185
3019 3014 3005 3004 3006 3006 2998 2987 2987 2986 2985 2987 2988 2990 2994 2997 3002 3005 3008 3012 3020 3027 3033 3038 3039 3050 3055 3065 3079 3090 3098 3104 3109 3115 3121 3127 3133 3140 3147 3153 3158 3162 3167 3171 3174 3177 3178 3179 3181
3011 3008 3004 3005 2998 2997 2993 2977 2976 2975 2977 2981 2982 2983 2986 2990 2995 2998 3001 3004 3014 3021 3030 3032 3039 3046 3054 3062 3075 3085 3092 3097 3101 3108 3115 3122 3130 3137 3143 3149 3155 3160 3165 3169 3171 3174 3175 3175 3177
3003 3001 3000 2998 2997 2992 2992 2977 2969 2970 2972 2975 2978 2978 2981 2985 2988 2992 2995 2998 3009 3018 3025 3029 3027 3034 3049 3056 3065 3075 3082 3088 3096 3105 3113 3119 3126 3133 3138 3145 3152 3157 3161 3165 3168 3169 3170 3172 3174
2998 2996 2994 2993 2992 2990 2982 2982 2967 2969 2970 2972 2974 2975 2977 2978 2983 2987 2990 2995 3006 3015 3019 3029 3034 3037 3038 3050 3062 3070 3077 3086 3095 3102 3109 3116 3123 3130 3135 3142 3147 3153 3157 3160 3163 3166 3167 3168 3170
2998 2991 2988 2987 2988 2984 2973 2975 2969 2968 2968 2968 2970 2971 2973 2974 2978 2982 2986 2992 3000 3012 3017 3023 3031 3035 3043 3053 3065 3069 3075 3083 3089 3097 3104 3111 3118 3124 3129 3137 3143 3147 3151 3156 3159 3161 3164 3165 3167
2996 2992 2986 2986 2984 2978 2970 2973 2969 2965 2962 2965 2967 2966 2967 2970 2973 2979 2983 2991 2997 3009 3015 3020 3028 3036 3044 3044 3050 3065 3075 3081 3088 3094 3101 3107 3114 3119 3126 3131 3137 3143 3147 3151 3154 3157 3159 3161 3161
2993 2991 2989 2984 2975 2976 2974 2972 2969 2964 2963 2963 2965 2964 2964 2966 2971 2976 2982 2990 2999 3008 3014 3022 3030 3037 3042 3045 3042 3052 3067 3076 3083 3090 3097 3104 3110 3116 3122 3127 3131 3136 3140 3145 3147 3150 3154 3157 3160
2992 2991 2988 2985 2979 2978 2981 2974 2972 2968 2965 2965 2964 2962 2962 2965 2968 2974 2982 2989 2999 3007 3017 3024 3031 3037 3037 3041 3044 3054 3062 3069 3079 3086 3093 3099 3104 3110 3115 3120 3125 3129 3132 3137 3139 3144 3148 3152 3154
2995 2993 2989 2986 2983 2983 2983 2980 2978 2973 2968 2967 2964 2962 2963 2964 2966 2972 2980 2990 3000 3012 3018 3025 3031 3036 3038 3037 3041 3052 3056 3060 3073 3081 3088 3093 3099 3104 3109 3114 3118 3121 3125 3130 3132 3135 3140 3146 3148
2996 2993 2991 2990 2990 2988 2988 2989 2984 2978 2972 2969 2967 2964 2964 2963 2966 2971 2982 2992 3001 3009 3019 3026 3031 3035 3036 3040 3043 3050 3056 3063 3068 3072 3081 3089 3095 3099 3103 3107 3113 3116 3119 3122 3124 3130 3135 3139 3142
3002 2998 2996 2994 2998 2993 2994 2998 2990 2983 2978 2974 2971 2968 2962 2966 2970 2977 2985 2995 3006 3014 3020 3026 3028 3029 3032 3036 3042 3047 3053 3059 3063 3070 3076 3080 3086 3092 3098 3101 3106 3108 3111 3114 3118 3123 3130 3134 3136
Wind_Speed
11 14 16 18 10 13 21 34 22 20 19 22 24 26 26 24 17 24 28 28 35 24 21 17 13 13 14 15 15 15 15 15 15 15 13 12 11 9 7 6 9 8 7 9 11 10 10 10 10
14 14 16 13 15 19 29 21 22 23 21 16 25 29 30 31 19 20 24 28 22 10 24 22 15 15 16 17 17 17 16 16 17 17 14 13 11 10 9 7 10 8 8 9 9 9 9 10 10
16 16 19 14 22 29 18 17 16 14 19 21 24 26 29 23 23 23 26 26 26 17 16 24 21 17 19 20 20 19 18 18 17 19 17 15 11 11 9 8 10 9 9 9 8 8 9 11 12
17 20 22 24 24 22 29 21 20 19 15 22 31 22 33 24 23 25 30 29 26 37 19 20 24 21 21 22 22 21 20 19 18 19 20 16 14 13 11 9 9 9 9 9 8 9 11 12 13
20 22 26 21 34 31 22 18 16 20 19 13 28 31 25 14 25 33 24 28 32 25 19 12 24 24 24 25 24 22 22 20 19 19 21 19 16 15 13 11 10 11 11 10 9 10 11 13 13
22 24 21 27 31 25 24 25 27 27 23 20 19 28 26 18 16 32 33 24 37 37 36 21 23 27 26 27 25 25 24 22 19 18 21 21 18 17 15 14 13 12 11 11 11 13 13 13 12
25 23 27 25 27 24 20 17 24 27 28 27 19 28 28 30 26 30 29 31 36 35 44 36 25 30 29 28 27 27 25 23 21 21 23 24 21 20 18 16 15 13 13 13 14 14 13 12 12
22 22 31 30 30 32 23 26 26 26 28 31 28 31 28 26 34 27 26 34 39 35 37 48 36 32 31 31 30 29 27 25 24 25 27 25 24 21 21 19 17 15 16 17 16 14 13 12 12
18 27 29 28 26 29 26 26 25 26 31 29 37 37 31 20 41 43 32 29 38 36 39 46 43 33 35 34 33 31 29 28 29 29 28 26 26 23 23 21 19 18 20 19 17 15 14 12 11
22 25 26 23 21 23 22 24 24 26 29 29 35 42 36 29 40 44 38 40 34 39 39 44 44 38 37 37 36 34 32 32 32 32 30 29 27 26 25 24 22 22 22 20 18 16 15 14 12
20 27 23 23 24 22 24 27 26 30 31 32 29 36 44 33 40 49 41 41 36 35 40 41 48 49 42 42 39 38 34 34 35 34 31 30 29 30 28 26 25 25 23 21 19 17 16 14 13
24 25 25 25 24 29 31 31 30 30 37 33 33 34 46 40 40 44 44 39 45 40 45 41 46 64 48 43 40 40 37 37 36 35 34 32 34 32 30 26 26 25 24 22 20 18 16 14 12
22 25 27 28 29 31 34 36 38 45 41 40 42 39 49 43 46 39 48 50 44 43 46 48 50 74 35 40 41 41 38 37 37 36 36 34 35 32 29 27 27 27 25 23 20 18 15 13 11
26 28 28 28 28 28 30 33 32 37 36 39 41 50 51 48 45 42 49 49 50 52 34 46 49 64 44 38 43 44 41 39 39 38 38 36 35 33 30 30 30 29 27 24 21 17 14 12 9
14 22 25 28 30 31 30 36 42 39 35 40 38 42 51 50 50 50 49 50 53 50 62 46 48 56 55 31 48 46 45 41 39 41 41 39 37 34 31 32 33 30 27 24 20 17 14 11 8
21 24 30 28 21 24 27 43 38 28 32 31 38 41 42 48 59 55 52 46 49 51 51 36 46 51 56 26 46 47 44 42 42 46 40 38 36 35 35 36 36 32 28 24 20 16 13 10 7
21 26 28 30 24 24 27 35 35 33 29 31 36 34 43 43 47 46 48 55 60 53 49 41 24 45 50 45 46 51 48 45 47 42 39 39 39 35 39 39 37 33 28 24 20 16 13 9 6
18 22 29 34 30 29 33 37 33 33 33 36 38 38 35 36 40 38 45 54 55 49 59 46 31 53 56 47 47 50 50 49 49 41 42 43 43 39 41 40 36 32 28 24 19 16 12 9 7
25 27 33 39 34 31 36 39 38 31 35 36 33 30 31 37 38 33 35 46 45 52 45 43 30 56 58 57 51 49 51 45 42 41 42 44 41 40 41 39 36 32 28 24 20 16 12 10 9
25 32 42 40 29 22 30 40 38 36 32 29 27 28 27 25 30 35 31 37 40 53 46 34 39 46 38 62 47 42 42 42 40 42 42 43 39 40 42 40 38 34 29 25 20 17 14 12 12
29 33 39 35 35 30 32 44 36 29 28 30 26 27 29 33 33 33 27 20 40 48 38 27 53 42 49 51 39 40 40 40 41 43 44 43 41 42 44 43 39 34 29 24 21 18 16 16 15
32 29 28 32 32 21 10 12 29 18 21 27 23 18 23 27 26 26 21 25 36 40 29 30 47 26 49 63 52 42 44 44 42 42 43 44 44 45 45 44 39 34 31 27 24 22 20 19 14
31 23 24 24 23 27 29 13 9 7 19 21 25 28 21 23 24 23 28 28 25 31 27 22 36 40 47 55 48 42 45 42 41 43 44 45 44 45 46 44 39 36 33 30 26 23 22 19 12
23 24 25 22 11 7 28 18 4 8 19 17 19 18 19 19 23 23 19 21 25 31 24 21 34 35 37 38 42 42 43 41 44 43 44 45 45 47 47 43 41 39 35 30 27 25 20 18 20
6 19 3 2 4 4 3 8 3 14 11 16 15 20 20 21 24 23 22 21 28 26 20 17 22 37 39 43 36 39 39 41 39 39 42 44 46 45 44 44 42 38 34 32 29 26 19 11 18
14 14 4 4 1 3 6 4 14 14 6 4 8 14 17 19 26 24 17 24 31 26 19 22 29 28 43 49 36 45 44 42 40 38 40 40 41 41 42 42 40 38 35 34 30 27 25 16 25
14 16 12 5 4 2 4 18 13 17 10 12 11 12 15 17 23 21 18 29 30 22 16 13 20 31 21 49 57 38 36 36 36 35 36 37 36 37 40 41 39 37 36 35 33 30 26 27 30
15 17 5 6 4 3 3 5 17 18 18 24 23 6 6 10 16 20 28 33 28 21 16 12 20 18 8 28 34 37 38 27 31 33 32 35 36 39 39 40 40 42 40 36 33 30 35 24 24
20 21 9 6 6 3 3 7 24 20 27 25 28 22 19 17 20 28 32 35 29 21 16 13 22 14 13 14 39 32 33 32 41 28 26 33 37 33 36 35 41 45 44 40 40 39 28 25 26
19 17 15 8 10 6 4 11 30 31 28 20 29 33 28 32 28 36 39 36 30 24 21 15 10 7 19 13 28 34 36 18 12 27 42 39 34 42 56 48 44 45 51 47 43 50 39 27 24
Wind_Direction
239 230 231 231 209 224 236 239 239 225 236 240 232 236 237 238 260 247 249 248 244 239 245 251 234 232 225 222 211 199 193 193 181 183 188 173 168 165 163 146 138 133 122 127 123 128 123 121 120
246 238 235 221 227 223 244 247 245 250 230 231 226 233 233 238 247 265 248 245 224 260 238 240 236 226 224 219 213 206 199 198 187 182 192 182 176 175 174 161 155 142 132 131 130 127 125 124 121
248 235 228 223 229 225 246 232 252 270 247 240 236 229 224 235 232 264 248 240 244 242 238 233 236 224 218 218 212 207 203 200 193 184 192 191 187 186 186 178 161 146 138 138 135 136 132 127 122
244 241 233 222 226 247 244 236 225 237 212 242 229 238 225 219 222 258 258 256 253 244 229 226 228 223 214 214 211 210 206 204 199 190 192 198 190 191 192 185 168 155 149 143 147 141 137 129 123
248 239 236 244 244 238 223 229 243 257 235 239 234 238 232 184 234 247 247 249 248 234 227 234 227 219 209 209 209 209 209 207 204 195 192 191 193 193 192 186 177 162 157 151 150 144 137 129 123
238 237 233 238 246 248 251 243 244 247 233 228 231 225 225 185 252 243 244 248 240 235 238 234 230 220 210 208 206 207 208 207 203 197 185 191 191 193 192 184 176 168 162 158 152 145 138 133 127
236 235 245 248 253 248 244 246 251 258 253 222 223 246 242 212 259 260 252 244 247 241 239 243 244 219 213 210 205 206 205 205 200 189 186 194 188 194 188 181 177 171 166 159 153 147 143 137 130
234 238 246 245 255 259 253 252 246 245 249 248 216 234 231 232 236 248 241 242 244 232 236 246 251 219 215 212 208 204 202 199 195 187 190 193 191 192 185 178 177 173 166 160 155 152 146 139 133
224 232 246 251 254 263 258 259 252 246 250 245 228 224 211 233 233 244 240 233 232 232 230 231 244 225 216 215 210 203 200 195 191 189 192 196 192 191 185 178 178 174 166 161 157 154 147 139 132
228 239 250 256 255 263 262 259 261 254 242 244 246 216 210 221 228 236 236 234 233 230 225 233 232 232 220 215 211 204 197 194 189 193 191 196 195 191 186 180 180 174 166 162 159 153 145 140 137
252 256 255 243 245 252 260 260 259 250 247 236 244 228 219 233 231 231 235 226 236 228 228 235 225 237 220 217 210 204 194 195 190 195 195 196 193 192 187 184 180 174 167 164 157 152 147 144 139
265 265 273 275 264 263 259 262 253 246 246 233 234 229 230 233 235 239 243 229 228 227 215 228 225 233 221 217 210 202 196 197 196 195 198 196 194 191 189 186 181 175 168 162 159 155 151 149 142
258 266 264 268 269 264 265 260 260 252 248 241 234 225 224 230 227 234 237 229 219 232 221 212 224 231 195 218 213 202 198 199 196 199 201 196 194 193 190 185 180 175 169 166 166 161 158 153 146
254 257 261 259 257 258 257 263 259 263 264 254 244 229 228 229 224 226 232 239 224 223 227 218 225 230 220 207 213 206 200 200 200 202 204 195 195 194 190 186 180 177 173 172 170 166 164 163 161
276 275 274 269 271 271 276 268 265 268 269 258 251 245 235 229 231 231 231 229 235 224 234 212 225 224 228 219 214 207 203 201 201 203 204 196 195 194 191 187 181 181 179 175 176 175 175 174 169
276 274 277 284 282 278 268 264 277 278 271 267 253 248 243 237 229 232 236 234 230 228 219 200 217 218 225 193 203 205 204 202 204 206 200 198 198 194 191 187 185 184 180 181 182 184 186 182 182
273 270 278 285 274 281 272 278 272 274 273 257 257 249 242 241 233 236 240 238 235 230 227 228 216 217 198 191 204 204 202 205 211 202 198 197 199 196 193 189 190 184 185 187 189 192 193 191 200
272 279 282 280 283 285 282 284 270 257 248 259 237 247 254 241 219 235 241 238 242 233 226 240 236 218 206 188 201 209 202 203 207 199 196 198 198 196 196 194 189 189 191 193 195 199 204 208 223
282 283 285 283 285 287 282 280 276 272 270 253 255 245 251 233 222 234 242 239 235 232 227 242 230 188 195 203 201 211 211 208 205 200 196 199 201 198 197 195 193 195 197 200 202 206 214 228 243
271 274 274 286 292 286 282 277 273 266 262 240 241 232 236 222 228 233 246 241 226 226 222 252 233 207 196 197 203 210 210 207 202 200 198 201 202 200 198 197 199 201 203 205 210 215 226 242 256
273 267 276 276 300 291 287 284 285 280 245 252 246 232 222 218 221 226 240 245 225 225 219 245 222 198 204 188 195 207 205 203 201 199 199 200 201 201 201 202 205 207 209 213 220 226 238 246 257
275 301 284 288 285 275 283 293 285 284 231 240 237 236 223 223 221 231 237 218 218 218 232 233 236 207 192 194 195 203 207 202 199 201 198 202 202 202 204 207 209 213 216 220 227 233 241 251 257
285 302 293 286 285 288 285 262 294 263 234 232 226 237 240 216 219 226 222 196 201 207 236 221 231 206 186 198 193 202 205 203 202 201 201 205 206 205 208 211 213 217 223 226 232 241 248 253 252
298 302 305 290 270 244 268 223 289 252 228 219 238 226 215 212 203 206 197 195 193 207 223 228 221 211 213 197 199 203 202 201 202 203 205 207 209 209 212 213 217 222 226 232 236 241 239 252 246
291 294 274 137 198 253 288 165 291 334 242 227 204 217 215 211 207 189 171 197 191 200 200 207 223 228 231 216 192 202 206 203 204 207 209 211 213 213 216 217 221 226 230 234 236 234 237 249 261
315 303 330 295 271 67 154 356 3 24 90 126 188 219 219 206 197 184 175 192 183 191 188 198 211 231 236 228 204 188 198 200 201 205 208 214 217 219 221 221 224 227 230 233 227 224 225 210 238
335 346 337 284 301 82 32 25 11 16 73 103 114 203 205 208 190 188 174 171 171 177 195 216 213 237 201 210 216 191 196 201 200 204 209 212 214 217 221 224 224 224 223 222 223 229 238 258 234
13 7 335 6 345 75 339 354 3 19 55 72 78 92 190 203 186 177 168 161 161 172 186 205 235 207 260 198 199 191 208 188 199 204 213 216 218 221 222 222 224 222 221 224 227 239 251 217 244
6 1 357 343 21 12 353 19 16 33 66 71 65 79 128 149 157 152 156 150 154 150 161 191 241 237 278 206 190 205 202 204 212 200 207 218 221 218 220 222 228 222 226 229 236 252 250 218 237
12 6 34 17 13 23 70 36 24 38 54 72 64 64 91 125 136 148 151 149 150 155 154 189 208 279 280 221 205 208 214 256 235 230 223 241 229 226 233 224 225 226 229 235 241 251 238 235 239